Location: Newark
(55.7600°N, 37.6133°E)
Time: 17:01:22
(UTC+00:00)

Envisat - Visible Passes

Search period start: 20 October 2019 00:00
Search period end: 30 October 2019 00:00
Orbit: 764 x 766 km, 98.1° (Epoch: 20 October)

Date Brightness Start Highest point End Pass type
(mag) Time Alt. Az. Time Alt. Az. Time Alt. Az.
20 Oct 6.3 02:54:07 10° NE 02:56:25 13° E 02:58:43 10° ESE visible
20 Oct 4.1 15:53:48 10° S 15:58:42 47° W 16:03:38 10° NNW visible
21 Oct 3.1 15:16:43 10° SSE 15:21:49 87° WSW 15:26:57 10° NNW visible
21 Oct 5.9 16:58:18 10° SW 17:01:37 17° W 17:04:57 10° NW visible
22 Oct 6.0 03:18:36 10° NE 03:22:20 20° E 03:26:02 10° SE visible
22 Oct 4.9 16:19:55 10° SSW 16:24:24 31° W 16:28:56 10° NNW visible
23 Oct 6.6 02:43:56 10° ENE 02:44:57 11° E 02:45:58 10° E visible
23 Oct 3.7 15:42:23 10° S 15:47:23 57° W 15:52:25 10° NNW visible
23 Oct 6.3 17:26:15 10° W 17:27:33 11° W 17:28:52 10° WNW visible
24 Oct 3.0 15:05:28 10° SSE 15:10:33 80° ENE 15:15:40 10° NNW visible
24 Oct 5.6 16:46:26 10° SW 16:50:12 21° W 16:54:00 10° NW visible
25 Oct 6.1 03:07:39 10° NE 03:10:54 17° E 03:14:08 10° SE visible
25 Oct 4.6 16:08:21 10° SSW 16:13:03 37° W 16:17:46 10° NNW visible
26 Oct 3.4 15:31:01 10° S 15:36:04 68° WSW 15:41:11 10° NNW visible
26 Oct 6.1 17:13:40 10° WSW 17:16:06 13° W 17:18:32 10° NW visible
27 Oct 5.6 03:32:31 10° NE 03:36:45 25° E 03:40:56 10° SSE visible
27 Oct 3.0 14:54:16 10° SSE 14:59:18 67° ENE 15:04:22 10° NNW visible
27 Oct 5.3 16:34:40 10° SW 16:38:48 24° W 16:42:57 10° NW visible
28 Oct 6.2 02:56:50 10° NE 02:59:27 14° E 03:02:04 10° ESE visible
28 Oct 4.2 15:56:51 10° S 16:01:42 44° W 16:06:35 10° NNW visible
29 Oct 3.1 15:19:41 10° SSE 15:24:47 81° WSW 15:29:55 10° NNW visible
29 Oct 5.9 17:01:32 10° WSW 17:04:39 16° W 17:07:47 10° NW visible
